TAIP52 YCBG-YCBG

Flight info

Callsign TAIP52
Flight time 0h 5m
Altitude 1000
Route YRKB DCT
Aircraft EC35/L-SDFGRY/C

Departure

Time 2026-05-08 04:17
Airport Cambridge Aerodrome (YCBG)

Arrival

Time 2026-05-08 04:22
Airport Cambridge Aerodrome (YCBG)
Time Latitude Longitude Altitude Speed Heading
2026-05-08 04:05 -42.83003 147.47687 51 ft 0 kts 182°
2026-05-08 04:12 -42.83002 147.47688 56 ft 1 kts 186°
2026-05-08 04:12 -42.83003 147.47686 57 ft 1 kts 149°
2026-05-08 04:13 -42.82984 147.47696 53 ft 6 kts 13°
2026-05-08 04:13 -42.82961 147.47705 61 ft 4 kts
2026-05-08 04:13 -42.82923 147.47719 56 ft 7 kts 21°
2026-05-08 04:13 -42.82874 147.47743 57 ft 8 kts 24°
2026-05-08 04:14 -42.82823 147.47779 55 ft 9 kts 348°
2026-05-08 04:14 -42.82732 147.47740 62 ft 19 kts 322°
2026-05-08 04:14 -42.82601 147.47680 65 ft 7 kts 100°
2026-05-08 04:14 -42.82614 147.47694 75 ft 9 kts 148°
2026-05-08 04:15 -42.82666 147.47730 50 ft 2 kts 175°
2026-05-08 04:15 -42.82661 147.47734 48 ft 2 kts 153°
2026-05-08 04:15 -42.82663 147.47735 48 ft 0 kts 143°
2026-05-08 04:15 -42.82678 147.47755 57 ft 14 kts 141°
2026-05-08 04:16 -42.82933 147.48037 154 ft 68 kts 145°
2026-05-08 04:16 -42.83302 147.48375 286 ft 58 kts 154°
2026-05-08 04:16 -42.83686 147.48321 452 ft 58 kts 199°
2026-05-08 04:16 -42.84075 147.48140 611 ft 59 kts 196°
2026-05-08 04:17 -42.84488 147.48071 779 ft 60 kts 187°
2026-05-08 04:17 -42.84909 147.48035 987 ft 61 kts 191°
2026-05-08 04:17 -42.85315 147.47939 1047 ft 59 kts 201°
2026-05-08 04:17 -42.85777 147.47680 1018 ft 84 kts 212°
2026-05-08 04:18 -42.86383 147.47308 1025 ft 104 kts 205°
2026-05-08 04:18 -42.87046 147.46963 1035 ft 101 kts 206°
2026-05-08 04:18 -42.87680 147.46675 1112 ft 92 kts 204°
2026-05-08 04:18 -42.88310 147.46415 980 ft 98 kts 200°
2026-05-08 04:19 -42.88998 147.46228 930 ft 103 kts 184°
2026-05-08 04:19 -42.89696 147.46298 955 ft 98 kts 182°
2026-05-08 04:19 -42.90365 147.46364 912 ft 95 kts 181°
2026-05-08 04:19 -42.91008 147.46380 780 ft 88 kts 192°
2026-05-08 04:20 -42.91392 147.45926 678 ft 74 kts 257°
2026-05-08 04:20 -42.91110 147.45400 573 ft 77 kts 330°
2026-05-08 04:20 -42.90610 147.45356 602 ft 73 kts 22°
2026-05-08 04:20 -42.90386 147.45873 622 ft 59 kts 107°
2026-05-08 04:21 -42.90643 147.46157 688 ft 51 kts 181°
2026-05-08 04:21 -42.91015 147.46094 610 ft 57 kts 197°
2026-05-08 04:21 -42.91320 147.45793 554 ft 56 kts 240°
2026-05-08 04:21 -42.91090 147.45361 515 ft 75 kts 346°
2026-05-08 04:22 -42.90579 147.45318 557 ft 72 kts 353°
2026-05-08 04:22 -42.90136 147.45489 588 ft 60 kts 38°
2026-05-08 04:22 -42.89990 147.45842 517 ft 22 kts 121°
2026-05-08 04:22 -42.90058 147.45890 508 ft 19 kts 179°
2026-05-08 04:23 -42.90258 147.45922 507 ft 38 kts 180°
2026-05-08 04:23 -42.90543 147.45922 468 ft 41 kts 185°
2026-05-08 04:23 -42.90792 147.45876 279 ft 32 kts 203°
2026-05-08 04:23 -42.90932 147.45780 143 ft 12 kts 214°
2026-05-08 04:24 -42.90969 147.45731 78 ft 6 kts 214°
2026-05-08 04:24 -42.90983 147.45718 60 ft 1 kts 215°
2026-05-08 04:24 -42.90985 147.45717 55 ft 1 kts 215°
2026-05-08 04:24 -42.90981 147.45724 51 ft 3 kts 105°
2026-05-08 04:25 -42.90965 147.45744 60 ft 4 kts 318°
2026-05-08 04:25 -42.90952 147.45732 60 ft 1 kts 175°
2026-05-08 04:25 -42.90963 147.45730 63 ft 2 kts 203°
2026-05-08 04:25 -42.90972 147.45730 77 ft 1 kts 202°
2026-05-08 04:26 -42.90981 147.45739 178 ft 8 kts 204°
2026-05-08 04:26 -42.91222 147.45632 404 ft 60 kts 206°
2026-05-08 04:26 -42.91466 147.45133 514 ft 72 kts 264°
2026-05-08 04:26 -42.91174 147.44652 505 ft 69 kts 342°
2026-05-08 04:27 -42.90757 147.44746 421 ft 55 kts 18°
2026-05-08 04:27 -42.90412 147.44956 449 ft 54 kts 25°
2026-05-08 04:27 -42.90124 147.45244 478 ft 47 kts 72°
2026-05-08 04:27 -42.90150 147.45545 451 ft 29 kts 150°
2026-05-08 04:28 -42.90373 147.45689 413 ft 42 kts 169°
2026-05-08 04:28 -42.90645 147.45796 347 ft 36 kts 178°
2026-05-08 04:28 -42.90840 147.45808 230 ft 23 kts 196°
2026-05-08 04:28 -42.90945 147.45767 124 ft 9 kts 215°
2026-05-08 04:29 -42.90983 147.45722 66 ft 4 kts 217°
2026-05-08 04:29 -42.90991 147.45719 56 ft 1 kts 218°
2026-05-08 04:29 -42.90997 147.45720 52 ft 1 kts 208°
2026-05-08 04:29 -42.90992 147.45726 53 ft 3 kts 54°
2026-05-08 04:30 -42.90973 147.45739 56 ft 3 kts 20°
2026-05-08 04:30 -42.90962 147.45734 60 ft 2 kts 199°
2026-05-08 04:30 -42.90968 147.45734 262 ft 9 kts 196°
2026-05-08 04:30 -42.91259 147.45594 350 ft 67 kts 199°
2026-05-08 04:31 -42.91419 147.44982 402 ft 88 kts 281°
2026-05-08 04:31 -42.90887 147.44496 402 ft 100 kts 359°
2026-05-08 04:31 -42.90391 147.44925 509 ft 78 kts 71°
2026-05-08 04:31 -42.90184 147.45544 556 ft 65 kts 83°
2026-05-08 04:32 -42.90244 147.45997 557 ft 34 kts 130°
2026-05-08 04:32 -42.90411 147.46061 536 ft 26 kts 199°
2026-05-08 04:32 -42.90588 147.45985 469 ft 28 kts 199°
2026-05-08 04:32 -42.90764 147.45905 372 ft 25 kts 201°
2026-05-08 04:33 -42.90902 147.45794 235 ft 21 kts 212°
2026-05-08 04:33 -42.90965 147.45738 90 ft 3 kts 214°
2026-05-08 04:33 -42.90981 147.45727 58 ft 2 kts 213°
2026-05-08 04:33 -42.90991 147.45724 58 ft 3 kts 158°
2026-05-08 04:34 -42.90997 147.45755 55 ft 3 kts 130°
2026-05-08 04:34 -42.91004 147.45771 62 ft 3 kts 17°
2026-05-08 04:34 -42.91002 147.45763 62 ft 2 kts 243°
2026-05-08 04:34 -42.91006 147.45757 187 ft 3 kts 237°
2026-05-08 04:35 -42.91114 147.45560 359 ft 53 kts 228°
2026-05-08 04:35 -42.91518 147.45352 408 ft 71 kts 172°
2026-05-08 04:35 -42.91894 147.45789 444 ft 75 kts 124°
2026-05-08 04:35 -42.91819 147.46494 438 ft 80 kts 63°
2026-05-08 04:36 -42.91375 147.46786 358 ft 57 kts 328°
2026-05-08 04:36 -42.91218 147.46516 357 ft 35 kts 282°
2026-05-08 04:36 -42.91150 147.46213 303 ft 31 kts 279°
2026-05-08 04:36 -42.91085 147.45939 208 ft 28 kts 286°
2026-05-08 04:37 -42.91021 147.45788 103 ft 11 kts 287°
2026-05-08 04:37 -42.90997 147.45739 59 ft 0 kts 288°
2026-05-08 04:37 -42.90991 147.45722 58 ft 1 kts 248°
2026-05-08 04:37 -42.90987 147.45721 60 ft 3 kts 122°
2026-05-08 04:38 -42.90994 147.45749 63 ft 3 kts 107°
2026-05-08 04:38 -42.91002 147.45771 66 ft 1 kts 107°
2026-05-08 04:38 -42.91013 147.45765 59 ft 6 kts 210°
2026-05-08 04:38 -42.91004 147.45747 70 ft 0 kts 276°
2026-05-08 04:39 -42.90990 147.45656 248 ft 35 kts 276°
2026-05-08 04:39 -42.90919 147.45108 324 ft 72 kts 274°
2026-05-08 04:39 -42.91054 147.44480 400 ft 69 kts 221°
2026-05-08 04:39 -42.91487 147.44451 470 ft 70 kts 155°
2026-05-08 04:40 -42.91665 147.45096 498 ft 80 kts 103°
2026-05-08 04:40 -42.91699 147.45832 440 ft 76 kts 110°
2026-05-08 04:40 -42.91567 147.46483 449 ft 67 kts 61°
2026-05-08 04:40 -42.91210 147.46680 414 ft 49 kts 349°
2026-05-08 04:41 -42.91026 147.46452 401 ft 27 kts 261°
2026-05-08 04:41 -42.91022 147.46234 348 ft 21 kts 263°
2026-05-08 04:41 -42.91026 147.46059 280 ft 16 kts 263°
2026-05-08 04:41 -42.91012 147.45928 238 ft 11 kts 263°
2026-05-08 04:42 -42.91007 147.45818 173 ft 15 kts 263°
2026-05-08 04:42 -42.91004 147.45741 108 ft 3 kts 274°
2026-05-08 04:42 -42.91005 147.45734 74 ft 0 kts 274°
2026-05-08 04:42 -42.91001 147.45734 61 ft 0 kts 273°
2026-05-08 04:43 -42.91002 147.45737 53 ft 1 kts 273°
2026-05-08 04:43 -42.91000 147.45688 123 ft 27 kts 274°
2026-05-08 04:43 -42.91008 147.45177 281 ft 74 kts 257°
2026-05-08 04:43 -42.91459 147.44783 420 ft 89 kts 178°
2026-05-08 04:44 -42.91905 147.45364 552 ft 102 kts 113°
2026-05-08 04:44 -42.91743 147.46333 546 ft 108 kts 72°
2026-05-08 04:44 -42.91411 147.47246 526 ft 109 kts 66°
2026-05-08 04:44 -42.91042 147.48158 467 ft 111 kts 67°
2026-05-08 04:45 -42.90661 147.49062 539 ft 110 kts 69°
2026-05-08 04:45 -42.90234 147.49922 533 ft 110 kts 53°
2026-05-08 04:45 -42.89740 147.50444 516 ft 110 kts 28°
2026-05-08 04:45 -42.89025 147.50774 480 ft 108 kts 16°
2026-05-08 04:46 -42.88306 147.51044 509 ft 107 kts 14°
2026-05-08 04:46 -42.87589 147.51293 484 ft 106 kts 13°
2026-05-08 04:46 -42.86868 147.51508 486 ft 107 kts
2026-05-08 04:46 -42.86107 147.51685 468 ft 114 kts
2026-05-08 04:47 -42.85358 147.51436 523 ft 111 kts 327°
2026-05-08 04:47 -42.84810 147.50752 509 ft 105 kts 302°
2026-05-08 04:47 -42.84374 147.49955 479 ft 107 kts 298°
2026-05-08 04:47 -42.83930 147.49082 489 ft 116 kts 299°
2026-05-08 04:48 -42.83488 147.48118 496 ft 123 kts 294°
2026-05-08 04:48 -42.83198 147.47444 447 ft 126 kts 294°
2026-05-08 04:48 -42.82577 147.46684 369 ft 114 kts 337°
2026-05-08 04:48 -42.81829 147.46586 364 ft 98 kts 23°
2026-05-08 04:49 -42.81606 147.47100 388 ft 43 kts 141°
2026-05-08 04:49 -42.81863 147.47304 257 ft 49 kts 165°
2026-05-08 04:49 -42.82191 147.47482 142 ft 50 kts 162°
2026-05-08 04:49 -42.82478 147.47646 86 ft 34 kts 163°
2026-05-08 04:50 -42.82580 147.47707 51 ft 1 kts 163°
2026-05-08 04:50 -42.82581 147.47715 45 ft 1 kts 164°
2026-05-08 04:50 -42.82704 147.47750 67 ft 26 kts 172°
2026-05-08 04:50 -42.82818 147.47736 81 ft 22 kts 193°
2026-05-08 04:51 -42.82916 147.47707 57 ft 4 kts 189°
2026-05-08 04:51 -42.82944 147.47698 56 ft 6 kts 189°
2026-05-08 04:51 -42.82976 147.47690 55 ft 3 kts 181°
2026-05-08 04:51 -42.82987 147.47689 54 ft 2 kts 184°
2026-05-08 04:52 -42.82995 147.47688 52 ft 1 kts 185°
2026-05-08 04:52 -42.82996 147.47689 51 ft 1 kts 185°
2026-05-08 04:52 -42.82999 147.47688 51 ft 0 kts 185°